TimeAST,TemperatureF,Dew PointF,Humidity,Sea Level PressureIn,VisibilityMPH,Wind Direction,Wind SpeedMPH,Gust SpeedMPH,PrecipitationIn,Events,Conditions,WindDirDegrees,DateUTC
12:00 AM,73.4,68.0,83,30.04,6.2,Calm,Calm,-,N/A,,Scattered Clouds,0,2013-03-08 04:00:00
1:00 AM,71.6,68.0,88,30.01,6.2,Calm,Calm,-,N/A,,Scattered Clouds,0,2013-03-08 05:00:00
2:00 AM,72,69,87,29.99,17,Calm,Calm,,,,Haze,,2013-03-08 06:00:00
2:00 AM,71.6,69.8,94,29.98,6.2,Calm,Calm,-,N/A,,Scattered Clouds,0,2013-03-08 06:00:00
3:00 AM,71.6,68.0,88,29.98,6.2,Calm,Calm,-,N/A,,Partly Cloudy,0,2013-03-08 07:00:00
4:00 AM,71.6,68.0,88,29.98,6.2,Calm,Calm,-,N/A,,Partly Cloudy,0,2013-03-08 08:00:00
5:00 AM,71,69,89,29.98,17,Calm,Calm,,,,Haze,,2013-03-08 09:00:00
5:00 AM,71.6,68.0,88,29.98,6.2,Calm,Calm,-,N/A,,Partly Cloudy,0,2013-03-08 09:00:00
6:00 AM,-9999,-9999,N/A,-9999,6.2,Variable,3.5,-,N/A,,Mostly Cloudy,0,2013-03-08 10:00:00
7:00 AM,71.6,69.8,94,30.01,6.2,Calm,Calm,-,N/A,,Partly Cloudy,0,2013-03-08 11:00:00
8:00 AM,77,72,79,30.01,16,Calm,Calm,,,,Haze,,2013-03-08 12:00:00
8:00 AM,77.0,71.6,83,30.01,6.2,Calm,Calm,-,N/A,,Partly Cloudy,0,2013-03-08 12:00:00
9:00 AM,78.8,69.8,74,30.04,6.2,NE,5.8,-,N/A,,Scattered Clouds,40,2013-03-08 13:00:00
10:00 AM,80.6,69.8,70,30.04,6.2,East,6.9,-,N/A,,Scattered Clouds,80,2013-03-08 14:00:00
11:00 AM,81,69,60,30.05,16,NE,8.1,,,,Haze,40,2013-03-08 15:00:00
12:00 PM,82.4,69.8,66,30.01,6.2,NE,9.2,-,N/A,,Scattered Clouds,40,2013-03-08 16:00:00
1:00 PM,78.8,69.8,74,30.01,6.2,East,4.6,-,N/A,,Scattered Clouds,80,2013-03-08 17:00:00
2:00 PM,80,69,60,30.00,16,NNE,6.9,,,,Haze,20,2013-03-08 18:00:00
2:00 PM,80.6,68.0,65,29.98,6.2,NNE,6.9,-,N/A,,Scattered Clouds,20,2013-03-08 18:00:00
3:00 PM,80.6,69.8,70,29.98,6.2,NE,8.1,-,N/A,,Partly Cloudy,40,2013-03-08 19:00:00
4:00 PM,80.6,68.0,65,29.98,6.2,East,4.6,-,N/A,,Partly Cloudy,80,2013-03-08 20:00:00
5:00 PM,81,68,56,29.99,16,NE,5.8,,,,Haze,40,2013-03-08 21:00:00
5:00 PM,80.6,68.0,65,29.98,6.2,NE,5.8,-,N/A,,Partly Cloudy,40,2013-03-08 21:00:00
6:00 PM,78.8,68.0,69,29.98,6.2,ENE,4.6,-,N/A,,Partly Cloudy,60,2013-03-08 22:00:00
7:00 PM,77.0,68.0,74,30.01,6.2,NE,3.5,-,N/A,,Partly Cloudy,50,2013-03-08 23:00:00
8:00 PM,76,67,65,30.02,16,NE,5.8,,,,Haze,40,2013-03-09 00:00:00
8:00 PM,77.0,66.2,69,30.01,6.2,NE,5.8,-,N/A,,Partly Cloudy,40,2013-03-09 00:00:00
9:00 PM,77.0,68.0,74,30.01,6.2,Variable,2.3,-,N/A,,Partly Cloudy,0,2013-03-09 01:00:00
10:00 PM,75.2,68.0,78,30.01,6.2,Calm,Calm,-,N/A,,Partly Cloudy,0,2013-03-09 02:00:00
11:00 PM,73,67,78,30.02,16,Calm,Calm,,,,Haze,,2013-03-09 03:00:00
11:00 PM,73.4,68.0,83,30.01,6.2,Calm,Calm,-,N/A,,Partly Cloudy,0,2013-03-09 03:00:00